DL1DUR-2 Weather Reports


time (UTC)temp
C
wind
direction
speed
KPH
gust
KPH
rain 1hr
cm
rain 24hr
cm
rain mn
cm
humidity
%
barometer
mb
20260505140205 23 347 6.4 17.7 0.00 0.00 0.00 54 1007.8
20260505130204 23 266 6.4 17.7 0.00 0.00 0.00 52 1008.2
20260505124704 23 38 8.0 16.1 0.00 0.00 0.00 54 1008.3
20260505124205 23 269 6.4 16.1 0.00 0.00 0.00 54 1008.3
20260505123704 23 11 6.4 16.1 0.00 0.00 0.00 53 1008.3
20260505123205 23 51 4.8 14.5 0.00 0.00 0.00 50 1008.4
20260505122704 23 5 4.8 14.5 0.00 0.00 0.00 53 1008.5
20260505122205 23 14 6.4 14.5 0.00 0.00 0.00 55 1008.5
20260505121704 23 30 6.4 17.7 0.00 0.00 0.00 53 1008.5
20260505121204 23 15 6.4 17.7 0.00 0.00 0.00 54 1008.3
20260505120704 23 18 6.4 17.7 0.00 0.00 0.00 55 1008.4
20260505120204 23 349 6.4 16.1 0.00 0.00 0.00 54 1008.4
20260505115204 23 333 6.4 14.5 0.00 0.00 0.00 56 1008.4
20260505114704 23 46 6.4 22.5 0.00 0.00 0.00 57 1008.3
20260505114205 22 15 8.0 22.5 0.00 0.00 0.00 58 1008.4
20260505113704 23 26 9.7 22.5 0.00 0.00 0.00 57 1008.6
20260505112204 23 302 4.8 8.0 0.00 0.00 0.00 55 1008.5
20260505111704 23 295 4.8 8.0 0.00 0.00 0.00 53 1008.5
20260505111205 23 309 3.2 11.3 0.00 0.00 0.00 53 1008.6
20260505110704 23 5 4.8 11.3 0.00 0.00 0.00 54 1008.6
20260505110204 23 271 4.8 11.3 0.00 0.00 0.00 53 1008.6
20260505102204 23 9 3.2 6.4 0.00 0.00 0.00 52 1008.9
20260505101204 23 337 3.2 9.7 0.00 0.00 0.00 48 1009.0
20260505100704 23 97 3.2 9.7 0.00 0.00 0.00 49 1009.1
20260505095705 23 44 3.2 9.7 0.00 0.00 0.00 51 1009.2
20260505095204 23 41 3.2 9.7 0.00 0.00 0.00 53 1009.2
20260505094704 23 325 3.2 9.7 0.00 0.00 0.00 50 1009.3
20260505093204 23 327 3.2 9.7 0.00 0.00 0.00 54 1009.2
20260505092205 22 346 4.8 14.5 0.00 0.00 0.00 55 1009.2
20260505091704 22 23 4.8 14.5 0.00 0.00 0.00 55 1009.3
20260505091204 22 25 4.8 9.7 0.00 0.00 0.00 55 1009.4
20260505090704 22 355 4.8 9.7 0.00 0.00 0.00 54 1009.3
20260505090204 22 343 4.8 11.3 0.00 0.00 0.00 57 1009.4
20260505085204 22 0 4.8 9.7 0.00 0.00 0.00 57 1009.5
20260505084704 22 9 3.2 8.0 0.00 0.00 0.00 57 1009.5
20260505084204 22 22 3.2 8.0 0.00 0.00 0.00 56 1009.3
20260505083704 22 5 3.2 6.4 0.00 0.00 0.00 55 1009.5
20260505083204 22 62 3.2 6.4 0.00 0.00 0.00 58 1009.5
20260505082704 22 325 3.2 6.4 0.00 0.00 0.00 58 1009.5
20260505082204 21 328 3.2 6.4 0.00 0.00 0.00 58 1009.3
20260505081204 21 319 1.6 4.8 0.00 0.00 0.00 58 1009.6
20260505080704 21 68 1.6 6.4 0.00 0.00 0.00 58 1009.6
20260505080204 21 355 3.2 6.4 0.00 0.00 0.00 61 1009.6
20260505075704 21 84 3.2 6.4 0.00 0.00 0.00 62 1009.7
20260505072205 19 35 3.2 6.4 0.00 0.00 0.00 67 1009.7
20260505071704 18 18 3.2 6.4 0.00 0.00 0.00 70 1009.8
20260505071204 18 97 3.2 8.0 0.00 0.00 0.00 71 1009.7
20260505070704 18 32 3.2 8.0 0.00 0.00 0.00 72 1009.7
20260505070204 18 336 3.2 8.0 0.00 0.00 0.00 72 1009.7
20260505065704 18 19 4.8 8.0 0.00 0.00 0.00 73 1009.7
20260505064704 17 22 3.2 6.4 0.00 0.00 0.00 74 1009.6
20260505064204 17 17 1.6 6.4 0.00 0.00 0.00 75 1009.6
20260505063204 17 38 1.6 4.8 0.00 0.00 0.00 79 1009.7
20260505062704 16 326 1.6 4.8 0.00 0.00 0.00 80 1009.8
20260505062204 16 24 0.0 1.6 0.00 0.00 0.00 80 1009.6
20260505061204 15 209 0.0 3.2 0.00 0.00 0.00 80 1009.3
20260505060704 15 209 0.0 3.2 0.00 0.00 0.00 81 1009.2
20260505060204 15 209 0.0 3.2 0.00 0.00 0.00 83 1009.2
20260505055704 15 275 0.0 3.2 0.00 0.00 0.00 85 1009.1
20260505055204 14 299 1.6 3.2 0.00 0.00 0.00 87 1009.0
20260505054704 13 216 1.6 3.2 0.00 0.00 0.00 87 1009.0
20260505054204 13 216 1.6 3.2 0.00 0.00 0.00 88 1009.0
20260505053704 13 216 1.6 3.2 0.00 0.00 0.00 87 1009.0
20260505053204 13 216 1.6 3.2 0.00 0.00 0.00 87 1008.9
20260505052704 13 216 1.6 3.2 0.00 0.00 0.00 88 1008.9
20260505052203 13 306 1.6 3.2 0.00 0.00 0.00 88 1009.0
20260505051704 12 304 1.6 4.8 0.00 0.00 0.00 88 1009.0
20260505051204 12 304 1.6 4.8 0.00 0.00 0.00 88 1008.9
20260505050704 12 294 1.6 4.8 0.00 0.00 0.00 88 1008.8
20260505041704 11 302 0.0 3.2 0.00 0.00 0.00 88 1008.6
20260505041204 11 302 0.0 3.2 0.00 0.00 0.00 88 1008.7
20260505040704 11 302 1.6 3.2 0.00 0.00 0.00 88 1008.7
20260505040203 11 302 0.0 1.6 0.00 0.00 0.00 88 1008.8
20260505034204 11 302 1.6 3.2 0.00 0.00 0.00 87 1008.9
20260505033704 11 302 1.6 3.2 0.00 0.00 0.00 87 1008.9
20260505033204 11 302 0.0 1.6 0.00 0.00 0.00 87 1009.0
20260505031704 11 302 1.6 3.2 0.00 0.00 0.00 86 1009.1
20260505031204 11 302 1.6 3.2 0.00 0.00 0.00 86 1009.0
20260505030707 11 302 1.6 3.2 0.00 0.00 0.00 86 1009.1
20260505030204 12 273 1.6 3.2 0.00 0.00 0.00 86 1009.1
20260505025705 12 273 0.0 4.8 0.00 0.00 0.00 86 1009.2
20260505025204 12 273 1.6 4.8 0.00 0.00 0.00 86 1009.4
20260505024704 12 273 1.6 4.8 0.00 0.00 0.00 86 1009.5
20260505024204 12 273 0.0 1.6 0.00 0.00 0.00 86 1009.6
20260505023704 12 273 0.0 3.2 0.00 0.00 0.00 86 1009.7
20260505023204 12 273 1.6 3.2 0.00 0.00 0.00 85 1009.7
20260505022704 12 273 1.6 3.2 0.00 0.00 0.00 85 1009.9
20260505022205 12 273 1.6 3.2 0.00 0.00 0.00 85 1010.0
20260505021704 12 273 1.6 3.2 0.00 0.00 0.00 85 1010.0
20260505021204 12 291 1.6 3.2 0.00 0.00 0.00 86 1010.0
20260505020704 12 336 0.0 3.2 0.00 0.00 0.00 85 1010.1
20260505020204 12 338 1.6 3.2 0.00 0.00 0.00 85 1010.1
20260505015704 12 319 1.6 4.8 0.00 0.00 0.00 85 1010.2
20260505015204 12 319 1.6 8.0 0.00 0.00 0.00 85 1010.3
20260505014704 12 319 3.2 8.0 0.00 0.00 0.00 85 1010.4
20260505014204 12 319 4.8 8.0 0.00 0.00 0.00 85 1010.3
20260505013705 12 336 3.2 4.8 0.00 0.00 0.00 84 1010.3
20260505013204 12 325 1.6 1.6 0.00 0.00 0.00 84 1010.3
20260505012704 12 320 0.0 1.6 0.00 0.00 0.00 84 1010.4
20260505012204 12 320 0.0 3.2 0.00 0.00 0.00 84 1010.3
20260505011705 12 320 1.6 3.2 0.00 0.00 0.00 84 1010.3
20260505011204 12 320 1.6 3.2 0.00 0.00 0.00 84 1010.4
20260505010706 13 320 1.6 3.2 0.00 0.00 0.00 84 1010.4
20260505010203 13 288 1.6 3.2 0.00 0.00 0.00 84 1010.6
20260505005704 13 255 0.0 1.6 0.00 0.00 0.00 83 1010.6
20260505005205 13 255 0.0 3.2 0.00 0.00 0.00 83 1010.7
20260505004704 13 255 0.0 3.2 0.00 0.00 0.00 83 1010.8
20260505004204 13 255 0.0 3.2 0.00 0.00 0.00 83 1010.8
20260505003704 13 255 1.6 1.6 0.00 0.00 0.00 84 1010.8
20260505003204 13 255 0.0 1.6 0.00 0.00 0.00 84 1010.8
20260505002205 13 255 1.6 3.2 0.00 0.00 0.00 84 1010.8
20260505001704 13 255 0.0 3.2 0.00 0.00 0.00 84 1010.8
20260505000704 12 255 1.6 3.2 0.00 0.00 0.00 85 1011.0
20260505000204 12 255 1.6 3.2 0.00 0.00 0.00 84 1011.1
20260504235704 12 258 1.6 3.2 0.00 0.00 0.00 84 1011.2
20260504235204 12 261 1.6 3.2 0.00 0.00 0.00 84 1011.1
20260504234704 12 261 0.0 3.2 0.00 0.00 0.00 84 1011.1
20260504233704 12 261 1.6 3.2 0.00 0.00 0.00 85 1011.1
20260504233204 12 261 1.6 3.2 0.00 0.00 0.00 85 1011.1
20260504232704 12 261 1.6 3.2 0.00 0.00 0.00 85 1011.1
20260504232205 12 261 1.6 1.6 0.00 0.00 0.00 84 1011.1
20260504231704 12 261 0.0 1.6 0.00 0.00 0.00 85 1011.0
20260504230704 12 261 1.6 3.2 0.00 0.00 0.00 84 1011.1
20260504230205 12 261 1.6 3.2 0.00 0.00 0.00 84 1011.2
20260504225704 12 261 1.6 3.2 0.00 0.00 0.00 84 1011.3
20260504225204 12 261 0.0 1.6 0.00 0.00 0.00 85 1011.3
20260504224704 12 261 0.0 3.2 0.00 0.00 0.00 84 1011.3
20260504224204 12 261 1.6 3.2 0.00 0.00 0.00 84 1011.4
20260504223705 12 261 1.6 3.2 0.00 0.00 0.00 84 1011.4
20260504223205 12 261 1.6 3.2 0.00 0.00 0.00 84 1011.4
20260504222704 12 261 0.0 3.2 0.00 0.00 0.00 84 1011.4
20260504222204 12 261 0.0 3.2 0.00 0.00 0.00 83 1011.5
20260504221704 12 261 1.6 3.2 0.00 0.00 0.00 83 1011.5
20260504221204 12 261 1.6 3.2 0.00 0.00 0.00 83 1011.7
20260504220704 12 261 1.6 3.2 0.00 0.00 0.00 82 1011.8
20260504215704 12 261 0.0 3.2 0.00 0.00 0.00 82 1011.8
20260504215204 12 261 1.6 3.2 0.00 0.00 0.00 82 1011.8
20260504214704 13 261 1.6 3.2 0.00 0.00 0.00 82 1012.0
20260504214204 13 261 1.6 3.2 0.00 0.00 0.00 81 1012.1
20260504213704 13 261 1.6 3.2 0.00 0.00 0.00 82 1012.0
20260504213204 13 261 0.0 1.6 0.00 0.00 0.00 81 1012.0
20260504212704 13 261 0.0 1.6 0.00 0.00 0.00 81 1012.0
20260504212204 13 261 0.0 3.2 0.00 0.00 0.00 80 1012.1
20260504211204 13 261 1.6 3.2 0.00 0.00 0.00 80 1012.1
20260504210704 13 261 1.6 3.2 0.00 0.00 0.00 80 1012.2
20260504205704 14 261 1.6 3.2 0.00 0.00 0.00 79 1012.3
20260504205204 14 261 1.6 3.2 0.00 0.00 0.00 79 1012.2
20260504204704 14 261 1.6 3.2 0.00 0.00 0.00 78 1012.2
20260504204204 14 261 1.6 3.2 0.00 0.00 0.00 78 1012.3
20260504203704 15 261 1.6 3.2 0.00 0.00 0.00 78 1012.3
20260504203204 15 261 1.6 3.2 0.00 0.00 0.00 77 1012.3
20260504202204 15 261 1.6 3.2 0.00 0.00 0.00 77 1012.2
20260504201704 15 261 1.6 3.2 0.00 0.00 0.00 77 1012.2
20260504201204 15 261 0.0 3.2 0.00 0.00 0.00 77 1012.3
20260504200204 15 261 1.6 3.2 0.00 0.00 0.00 76 1012.3
20260504195204 15 261 1.6 3.2 0.00 0.00 0.00 76 1012.4
20260504194704 15 261 0.0 3.2 0.00 0.00 0.00 76 1012.3
20260504194204 15 261 0.0 3.2 0.00 0.00 0.00 75 1012.4
20260504193704 15 261 1.6 3.2 0.00 0.00 0.00 75 1012.3
20260504193204 16 261 1.6 3.2 0.00 0.00 0.00 74 1012.3
20260504192704 16 261 1.6 4.8 0.00 0.00 0.00 74 1012.4
20260504192204 16 261 1.6 4.8 0.00 0.00 0.00 73 1012.4
20260504191704 16 262 3.2 4.8 0.00 0.00 0.00 72 1012.4
20260504190705 17 262 3.2 4.8 0.00 0.00 0.00 71 1012.4
20260504190204 17 263 1.6 4.8 0.00 0.00 0.00 70 1012.4
20260504185704 17 271 1.6 4.8 0.00 0.00 0.00 70 1012.5
20260504185204 17 271 1.6 4.8 0.00 0.00 0.00 69 1012.4
20260504184704 18 289 1.6 4.8 0.00 0.00 0.00 68 1012.4
20260504184204 18 280 1.6 4.8 0.00 0.00 0.00 67 1012.5
20260504183704 18 280 3.2 4.8 0.00 0.00 0.00 66 1012.5
20260504183204 18 296 3.2 4.8 0.00 0.00 0.00 64 1012.4
20260504182204 19 296 3.2 8.0 0.00 0.00 0.00 63 1012.6
20260504181704 19 321 3.2 8.0 0.00 0.00 0.00 62 1012.5
20260504181205 20 325 4.8 6.4 0.00 0.00 0.00 61 1012.5
20260504180704 20 311 3.2 8.0 0.00 0.00 0.00 61 1012.4
20260504180204 20 325 3.2 8.0 0.00 0.00 0.00 60 1012.4
20260504175706 20 314 3.2 8.0 0.00 0.00 0.00 59 1012.4
20260504174704 21 316 4.8 16.1 0.00 0.00 0.00 58 1012.3
20260504173705 21 321 8.0 16.1 0.00 0.00 0.00 55 1012.4
20260504173204 21 325 6.4 16.1 0.00 0.00 0.00 53 1012.3
20260504172704 22 292 3.2 6.4 0.00 0.00 0.00 52 1012.4
20260504172204 22 238 3.2 6.4 0.00 0.00 0.00 48 1012.3
20260504171704 22 219 3.2 6.4 0.00 0.00 0.00 48 1012.3
20260504170704 22 232 3.2 6.4 0.00 0.00 0.00 47 1012.2
20260504170204 22 244 3.2 6.4 0.00 0.00 0.00 47 1012.2
20260504160204 23 169 3.2 9.7 0.00 0.00 0.00 45 1012.5
20260504150703 23 281 3.2 9.7 0.00 0.00 0.00 43 1012.6
20260504150205 23 269 4.8 16.1 0.00 0.00 0.00 42 1012.7